{"data":{"norad_id":48310,"epoch":"2026-09-20T00:26:00.580992Z","epoch_age_seconds":75049,"freshness":"FRESH","line1":"1 48310U 21036AL  26263.01806228  .00001078  00000+0  46513-4 0  9992","line2":"2 48310  53.1642 267.0565 0001863  92.5205 267.6010 15.31701888297957","mean_motion":15.31701888,"eccentricity":0.0001863,"inclination_deg":53.1642,"raan_deg":267.0565,"arg_perigee_deg":92.5205,"mean_anomaly_deg":267.601,"bstar":4.6513e-5,"rev_number":29795,"period_min":94.013072078945,"perigee_km":469.45842246596,"apogee_km":472.01031193738,"semimajor_km":6848.8713672017,"source":"CELESTRAK","updated_at":"2026-09-20T09:00:38.933836Z"}}